Kuiper-00038

operational
NORAD ID: 63750 Int'l Des: 2025-088 Owner: KUIP Country: US Constellation: kuiper
LEOCIRCULAR

关于 Kuiper-00038

正在加载描述...

实时位置

正在加载3D地球...

即将过境

高度历史

Altitude vs Time

uPlot chart will show altitude changes over time

两行轨道根数

1 63750U 25088AC 26062.17486512 .00006269 00000-0 85120-3 0 9996
2 63750 51.9028 126.8996 0000544 99.4725 260.6299 14.79901385 46559
Epoch: Mar 3, 2026 • Age: 30 hours

当前状态

高度 637.7 km
速度 7.54 km/s
星下点 -26.82°S, 152.66°W
发射日期 Apr 28, 2025
运行时间 0.8 years
类型 internet

技术详情

分类 Payload
质量 490.00 kg
干质量 490.00 kg
总质量 490.00 kg
长度 1.80 m
直径 0.70 m
跨度 5.00 m
形状 Box + 2 pan
制造商 KUIP
平台类型 Kuiper
阶段状态 In Orbit
所有者/国家 KUIP/US

大型星座

Loading constellations...